CZ-2C DEB (43555 NORAD) Tracking and Keplerian Element Data

This shows tracking and keplerian element data for the satellite.

Feedback or suggestion? Click here.




ElementValue
Catalog43555
NameCZ-2C DEB
Epoch Orbit425
Epoch Day219.66554188
Epoch Year2018
RAAN290.3889
Inclination98.0546
Eccentricity0.0037628
Argument of Perigee189.4318
Mean Anonmoly170.6162
Mean Motion14.88306301
Decay Rate0.00019759
L11 43555U 18056J 18219.66554188 .00019759 00000-0 21102-2 0 9995
L22 43555 98.0546 290.3889 0037628 189.4318 170.6162 14.88306301 4253

Live tracking and technical data element details for CZ-2C DEB (NORAD 43555). CZ-2C DEB can be tracked NOW for your location showing map with azimuth and elevation plus other details from your city location.

Track the satellite on the map from your city or location and see movement details for azimuth, elevation, latitude, longitude, range, height, and movement on the map or in text.







IsCatalogInMostPopularTable: catalog: 43555, numindb: 44
Update: records affected: 1



GetName: 43555 CZ-2C DEB

Hit Count: updated at: Sat, 17 Nov 2018 02:14:20 GMT